Regional Weather Roundup
Issued by NWS Grand Forks, ND

Home | Current Version | Previous Version | Text Only | Print | Product List | Glossary Off
Versions: 1 2 3 4 5 6 7 8 9 10 11 12 13 14 15 16 17 18 19 20 21 22 23 24 25 26 27 28 29 30 31 32 33 34 35 36 37 38 39 40 41 42 43 44 45 46 47 48 49 50

000
ASUS43 KFGF 220910
RWRFGF
PRAIRIE TO PINES  WEATHER ROUNDUP
NATIONAL WEATHER SERVICE EASTERN NORTH DAKOTA/GRAND FORKS ND
400 AM CDT WED OCT 22 2014

 **SATELLITE DATA USED TO AUGMENT SKY COVER AT AUTOMATED STATIONS**
 *****  WEATHER ACROSS EASTERN NORTH DAKOTA  *****

CITY           SKY/WX    TMP DP  RH WIND       PRES   REMARKS
GRAND FORKS    CLEAR     54  42  64 S23G30    29.81F
GRAND FRKS AFB PTCLDY    55  42  63 S23G31    29.79F
GRAND FRKS NWS   N/A     52 N/A N/A S16         N/A
DEVILS LAKE    CLEAR     57  43  58 S15       29.70R
FARGO          PTCLDY    55  41  59 SE25G35   29.87F
WAHPETON ARPT  PTSUNNY   50  37  62 SE18G26   29.93F
$$

 ***** WEATHER ACROSS CENTRAL AND WESTERN NORTH DAKOTA  *****

CITY           SKY/WX    TMP DP  RH WIND       PRES   REMARKS
BISMARCK       PTCLDY    58  48  69 S7        29.68S
MINOT          PTCLDY    59  47  64 SW14      29.63R
JAMESTOWN      PTCLDY    59  42  53 S17G25    29.75F
MINOT AFB      MOCLDY    58  48  69 SW12      29.62R
GARRISON         N/A     53  49  86 CALM      29.65F
WILLISTON      MOCLDY    54  46  74 W8        29.69R
DICKINSON      PTCLDY    53  45  74 W20       29.73R
HETTINGER      CLEAR     51  44  77 W12       29.78R
$$

 *****  OTHER AIRPORT OBSERVATIONS IN OUR AREA  *****

CITY           SKY/WX    TMP DP  RH WIND       PRES   REMARKS
WALHALLA         N/A     55  41  58 S20G35    29.72F
GRAFTON AIRPOR FAIR      54  41  62 S26G32    29.78F
VALLEY CITY AR FAIR      54  43  66 S16       29.80F
CANDO          FAIR      55  45  67 S16G23    29.69S
CAVALIER APRT  FAIR      55  41  58 S18G30    29.76F
GWINNER        SUNNY     61  41  48 S18       29.84F
SHEYENNE NWR     N/A     55  42  61 S18       29.95S
ROLLA          FAIR      54  43  66 S14       29.68F
 ***** THE ABOVE OBSERVATIONS ARE NON NWS ARE NOT QUALITY
       CONTROLLED AND MAY MIS-REPORT RAIN FOR SNOW...
$$

  *****  WEATHER ACROSS NORTHERN MINNESOTA  *****

CITY           SKY/WX    TMP DP  RH WIND       PRES   REMARKS
FLAG ISLAND    CLEAR     46  41  81 S26       29.93F
WARROAD        CLEAR     46  43  87 SE10      29.93F
ROSEAU         CLEAR     52  43  71 S20G29    29.90F
HALLOCK        CLEAR     55  43  62 S28G33    29.80F
THF RVR FALLS  CLEAR     52  39  62 SE17      29.90F
BAUDETTE       CLEAR     44  37  76 SE7       29.99F
WASKISH        CLEAR     46  39  76 SE14G22   30.00S
CROOKSTON      CLEAR     54  43  66 S26G33    29.86F
STEPHEN NDAWN    N/A     55  43  62 S23         N/A
GREENBUSH NDAW   N/A     52  41  66 S18         N/A
$$
  *****  WEATHER ACROSS CENTRAL AND WEST MINNESOTA  *****

CITY           SKY/WX    TMP DP  RH WIND       PRES   REMARKS
FOSSTON        CLEAR     48  39  71 SE15G23   29.94F
BEMIDJI        CLEAR     45  38  77 SE14      30.01F
PARK RAPIDS    CLEAR     46  39  76 SE20      30.03F
ELBOW LAKE     CLOUDY    51  41  69 SE23      29.99S
WADENA         CLEAR     45  37  76 SE14      30.03F
DETROIT LAKES  CLEAR     50  41  71 SE16G22   29.98S
MOORHEAD       PTCLDY    55  45  67 SE26G32   29.90F
FERGUS FALLS   PTCLDY    52  37  58 SE23      29.98S
MORRIS MN      CLEAR     48  41  76 SE16G23   30.00S
STAPLES        CLEAR     45  37  76 SE10      30.06S
$$
  *****  WEATHER ELSEWHERE ACROSS MINNESOTA  *****

CITY           SKY/WX    TMP DP  RH WIND       PRES   REMARKS
DULUTH         CLEAR     40  34  79 SE9       30.18F
INTRNTL FALLS  CLEAR     41  35  79 SE9       30.07S
ELY            CLEAR     37  36  93 S8        30.17S
CLOQUET        CLEAR     36  34  93 CALM      30.18S
WHEATON        MOCLDY    50  41  71 SE21      29.96F
BRAINERD       CLEAR     44  37  76 SE12      30.11F
HIBBING        CLEAR     35  32  88 SE5       30.15S
ALEXANDRIA     PTCLDY    48  40  73 SE16G24   30.05F
SAINT CLOUD    CLEAR     45  37  73 SE9       30.13F
MINNEAPOLIS    CLEAR     41  36  82 SE9       30.19S
$$

  *****  WEATHER ACROSS SOUTH DAKOTA  *****

CITY           SKY/WX    TMP DP  RH WIND       PRES   REMARKS
SIOUX FALLS    CLEAR     53  44  71 SE14G23   30.00F
BROOKINGS      NOT AVBL
WATERTOWN      CLEAR     53  42  66 S18G28    29.93F
HURON          CLEAR     56  39  53 S15G26    29.87S
SISSETON         N/A     51  43  74 S17       29.90F
ABERDEEN       CLEAR     60  39  45 S21G31    29.82F
MITCHELL       CLEAR     57  41  55 SE18      29.90F
PIERRE         PTCLDY    61  53  75 SE13      29.75F
MOBRIDGE       MOCLDY    62  52  69 SE9       29.72R
RAPID CITY     CLOUDY    59  39  47 N20G29    29.86R
$$

  *****  SOME WEATHER IN NEARBY STATES *****

CITY           SKY/WX    TMP DP  RH WIND       PRES   REMARKS
GLASGOW MT     PTCLDY    48  40  73 W13       29.77R
GREAT FALLS MT PTCLDY    42  34  73 SW15      29.92S
CHEYENNE WY    CLOUDY    48  40  73 W7        30.03S
SCOTTSBLUFF NE LGT RAIN  55  50  83 NW10      29.94R
OMAHA NE       CLEAR     55  44  66 SE13      30.10R
DES MOINES IA  CLEAR     47  38  71 SE9       30.20S
DAVENPORT IA   CLEAR     36  32  85 E5        30.29R
CHICAGO IL     CLOUDY    46  39  76 N5        30.28R
EAU CLAIRE WI  CLEAR     38  32  79 SE7       30.25S
LA CROSSE WI   CLEAR     40  35  83 SE8       30.27F
$$

  *****  SOME NATIONAL WEATHER *****

CITY           SKY/WX    TMP DP  RH WIND       PRES   REMARKS
LA GUARDIA NY  LGT RAIN  57  55  93 NE13      29.88S
RALEIGH NC     PTCLDY    51  41  68 VRB5      29.94R
ATLANTA GA     CLEAR     50  44  80 N7        30.03S
NEW ORLEANS LA PTCLDY    67  58  72 E5        30.02S
OKLAHOMA CITY  CLEAR     58  55  90 CALM      30.08S
ALBUQUERQUE NM MOCLDY    53  47  79 E6        30.12S
SALT LAKE CITY PTCLDY    43  35  73 NE3       30.11R
LOS ANGELES CA CLEAR     64  62  93 E3        29.88R
BOISE ID       CLEAR     45  38  76 SE10      30.08R
SEATTLE WA     CLOUDY    60  45  57 S15G22    29.70F
$$

*** WEATHER ACROSS MANITOBA...SASKATCHEWAN AND ONTARIO ***
                ***ONTARIO***

CITY           SKY/WX    TMP DP  RH WIND       PRES   REMARKS
GERALDTON      CLEAR     25  23  93 CALM      30.28R
THUNDER BAY    CLEAR     27  27 100 VRB2      30.28S
SIOUX LOOKOUT  CLEAR     39  36  87 S9G17     30.09S
TORONTO        MOCLDY    39  34  81 N14       30.21R
BIG TROUT LK   PTCLDY    39  34  81 S14G21    29.94F
PICKLE LAKE    NOT AVBL
DRYDEN         CLEAR     39  36  87 S14G20    30.05F
KENORA         PTCLDY    43  37  81 S12G20    29.97F
$$
                *** MANITOBA***

CITY           SKY/WX    TMP DP  RH WIND       PRES   REMARKS
BRANDON        CLEAR     54  45  71 SE8       29.61S
DAUPHIN        CLEAR     41  37  87 VRB2      29.58F
ISLAND LAKE    PTCLDY    45  39  81 SE9       29.77F
PILOT MOUND      N/A     55  43  62 S25G32      N/A
THE PAS        CLOUDY    45  41  87 SE6       29.57S
THOMPSON       CLEAR     37  37 100 SE2       29.62R
WINNIPEG       PTCLDY    57  41  54 S30G38    29.75F
LYNN LAKE      MOCLDY    39  39 100 NW6       29.58R
CHURCHILL      FOG       37  37 100 NE6       29.63R VSB 1/8
GILLAM         CLEAR     43  37  81 S10       29.66F
$$
                ***SASKATCHEWAN***

CITY           SKY/WX    TMP DP  RH WIND       PRES   REMARKS
ESTEVAN        PTCLDY    52  43  71 W10G18    29.62R
KINDERSLEY     CLOUDY    45  43  93 W5        29.70S
LLOYDMINSTER   PTCLDY    43  36  75 NW8       29.71
PRINCE ALBERT  MOCLDY    48  41  76 NW5       29.61R
REGINA         MOCLDY    50  43  76 W6        29.60R
YORKTON        CLEAR     45  41  87 S6        29.55S
N. BATTLEFORD  CLOUDY    46  45  93 W7        29.69R
LA RONGE       LGT RAIN  48  46  93 NW7       29.62F
SASKATOON      CLOUDY    48  41  76 W7        29.66R
SWIFT CURRENT  CLOUDY    46  43  87 W14       29.68S
$$
NOTE: THESE ARE AUTOMATED STATIONS WITH LIMITED QUALITY CONTROL
      "FAIR" INDICATES FEW OR NO CLOUDS BELOW 12,000 FEET WITH NO
      SIGNIFICANT WEATHER AND/OR OBSTRUCTIONS TO VISIBILITY.
      SKY/WX - SKY CONDITION AND SIGNIFICANT WEATHER.
      TMP - AIR TEMPERATURE.    DP   - DEWPOINT TEMPERATURE.
      RH  - RELATIVE HUMIDITY.  PRES - PRESSURE.
      HX  - HEAT INDEX.         WCI  - WIND CHILL INDEX.
$



USA.gov is the U.S. government's official web portal to all federal, state and local government web resources and services.